Total_Precipitation_Accumulation
-0.25 -0.27 -0.33 -0.21 0.00 0.00 0.13 0.11 0.11 0.11 -0.03 0.12 0.21 0.21 0.22 0.37 0.37 0.52 0.45 0.43 0.43 0.39 0.27 0.08 0.06 0.06 0.03 0.01 0.00 0.00 0.00 0.00 0.00 0.00 0.00 0.00 0.00 0.00 0.00 0.00 0.00 0.00 0.00 0.00 0.00 0.00 0.00 0.00 0.00 0.00 0.00 0.00 0.00 0.00 0.00 0.00 0.00 0.00 0.00 0.00 0.00 0.00 0.00 0.00 0.00 0.00 0.00 0.00 0.00 0.00 0.00 0.00 0.00 0.00 0.00 -0.04 -0.04 -0.12 -0.15 -0.13 -0.13 -0.11 -0.06 -0.02 -0.00 -0.00 -0.00 -0.00 -0.00 -0.00 -0.00 -0.00 -0.00 -0.00 0.00 0.00 0.00 0.00 0.00 0.00 0.00 0.00 0.00
-0.29 -0.20 -0.19 -0.17 0.00 0.00 0.15 0.14 0.01 0.01 -0.02 0.17 0.22 0.22 0.33 0.44 0.44 0.48 0.43 0.38 0.38 0.32 0.19 0.13 0.08 0.08 0.06 0.01 0.00 0.00 0.00 0.00 0.00 0.00 0.00 0.00 0.00 0.00 0.00 0.00 0.00 0.00 0.00 0.00 0.00 0.00 0.00 0.00 0.00 0.00 0.00 0.00 0.00 0.00 0.00 0.00 0.00 0.00 0.00 0.00 0.00 0.00 0.00 0.00 0.00 0.00 0.00 0.00 0.00 0.00 0.00 0.00 0.00 0.00 -0.01 -0.31 -0.31 -0.23 -0.19 -0.01 -0.01 -0.00 -0.01 -0.01 -0.00 -0.00 -0.00 -0.00 -0.00 -0.00 -0.00 0.00 0.00 0.00 0.00 0.00 0.00 0.00 0.00 0.00 0.00 0.00 0.00
-0.33 -0.09 0.03 -0.16 -0.15 -0.15 0.13 0.11 -0.01 -0.01 -0.01 0.22 0.22 0.22 0.28 0.46 0.46 0.54 0.49 0.35 0.35 0.28 0.19 0.22 0.17 0.17 0.09 0.04 0.00 0.00 0.00 0.00 0.00 0.00 0.00 0.00 0.00 0.00 0.00 0.00 0.00 0.00 0.00 0.00 0.00 0.00 0.00 0.00 0.00 0.00 0.00 0.00 0.00 0.00 0.00 0.00 0.00 0.00 0.00 0.00 0.00 0.00 0.00 0.00 0.00 0.00 0.00 0.00 0.00 0.00 0.00 -0.15 -0.19 -0.19 -0.25 -0.06 -0.06 -0.05 -0.02 0.00 0.00 0.00 0.00 -0.00 0.00 0.00 -0.00 -0.00 0.00 0.00 0.00 0.00 0.00 0.00 0.00 0.00 0.00 0.00 0.00 0.00 0.00 0.00 0.00
-0.30 -0.21 0.04 -0.14 -0.16 -0.16 0.06 0.11 0.09 0.09 0.20 0.27 0.29 0.29 0.28 0.39 0.39 0.53 0.43 0.40 0.40 0.30 0.20 0.30 0.19 0.19 0.07 0.02 0.00 0.00 0.00 0.00 0.00 0.00 0.00 0.00 0.00 0.00 0.00 0.00 0.00 0.00 0.00 0.00 0.00 0.00 0.00 0.00 0.00 0.00 0.00 0.00 0.00 0.00 0.00 0.00 0.00 0.00 0.00 0.00 0.00 0.00 0.00 0.00 0.00 0.00 0.00 0.00 0.00 0.00 -0.06 -0.09 -0.10 -0.10 -0.11 0.07 0.07 0.05 0.02 -0.00 -0.00 0.00 0.00 0.00 0.00 0.00 0.00 0.00 0.00 0.00 0.00 0.00 0.00 0.00 0.00 0.00 0.00 0.00 0.00 0.00 0.00 0.00 0.00
-0.26 -0.25 -0.13 -0.15 -0.02 -0.02 -0.07 0.13 0.27 0.27 0.32 0.35 0.31 0.31 0.32 0.43 0.43 0.55 0.50 0.45 0.45 0.23 0.17 0.21 0.22 0.22 0.07 0.02 0.00 0.00 0.00 0.00 0.00 0.00 0.00 0.00 0.00 0.00 0.00 0.00 0.00 0.00 0.00 0.00 0.00 0.00 0.00 0.00 0.00 0.00 0.00 0.00 0.00 0.00 0.00 0.00 0.00 0.00 0.00 0.00 0.00 0.00 0.00 0.00 0.00 0.00 0.00 -0.02 -0.05 -0.05 -0.09 -0.03 -0.04 -0.04 0.05 0.12 0.12 0.06 0.03 -0.00 -0.00 -0.00 0.00 0.00 0.00 0.00 -0.00 0.00 0.00 0.00 0.00 0.00 0.00 0.00 0.00 0.00 0.00 0.00 0.00 0.00 0.00 0.00 0.00
-0.16 -0.30 -0.22 -0.20 -0.15 -0.15 -0.06 0.20 0.22 0.22 0.43 0.40 0.38 0.38 0.38 0.55 0.55 0.57 0.46 0.36 0.36 0.25 0.15 0.06 0.11 0.11 0.09 0.02 0.00 0.00 0.00 0.00 0.00 0.00 0.00 0.00 0.00 0.00 0.00 0.00 0.00 0.00 0.00 0.00 0.00 0.00 0.00 0.00 0.00 0.00 0.00 0.00 0.00 0.00 0.00 0.00 0.00 0.00 0.00 0.00 0.00 0.00 0.00 0.00 0.00 0.00 -0.00 -0.01 -0.04 -0.04 -0.04 0.02 0.12 0.12 0.10 0.09 0.09 0.06 0.00 0.00 0.00 0.00 0.00 0.00 0.00 0.00 0.00 0.00 0.00 0.00 0.00 0.00 0.00 0.00 0.00 0.00 0.00 0.00 0.00 0.00 0.00 0.00 0.00
-0.15 -0.25 -0.18 -0.23 -0.13 -0.13 -0.10 0.22 0.23 0.23 0.45 0.39 0.38 0.38 0.44 0.61 0.61 0.61 0.41 0.34 0.34 0.26 0.14 0.12 0.09 0.09 0.06 0.00 0.00 0.00 0.00 0.00 0.00 0.00 0.00 0.00 0.00 0.00 0.00 0.00 0.00 0.00 0.00 0.00 0.00 0.00 0.00 0.00 0.00 0.00 0.00 0.00 0.00 0.00 0.00 0.00 0.00 0.00 0.00 0.00 0.00 0.00 0.00 0.00 0.00 0.00 -0.00 -0.01 -0.03 -0.03 -0.03 0.07 0.19 0.19 0.12 0.06 0.06 0.01 0.00 0.00 0.00 0.00 0.00 0.00 0.00 0.00 0.00 0.00 0.00 0.00 0.00 0.00 0.00 0.00 0.00 0.00 0.00 0.00 0.00 0.00 0.00 0.00 0.00
-0.05 -0.04 0.00 -0.15 -0.04 -0.04 -0.07 0.20 0.32 0.32 0.37 0.40 0.43 0.43 0.53 0.64 0.64 0.58 0.44 0.31 0.31 0.37 0.30 0.18 0.10 0.10 0.03 0.00 0.00 0.00 0.00 0.00 0.00 0.00 0.00 0.00 0.00 0.00 0.00 0.00 0.00 0.00 0.00 0.00 0.00 0.00 0.00 0.00 0.00 0.00 0.00 0.00 0.00 0.00 0.00 0.00 0.00 0.00 0.00 0.00 0.00 0.00 0.00 0.00 0.00 0.00 -0.00 -0.02 -0.03 -0.03 0.10 0.19 0.15 0.15 0.12 0.08 0.08 0.00 0.00 0.00 0.00 0.00 0.00 0.00 0.00 0.00 0.00 0.00 0.00 0.00 0.00 0.00 0.00 0.00 0.00 0.00 0.00 0.00 0.00 0.00 0.00 0.00 0.00
-0.02 -0.02 0.07 0.09 -0.03 -0.03 -0.06 0.19 0.23 0.23 0.34 0.35 0.41 0.41 0.56 0.66 0.66 0.55 0.48 0.27 0.27 0.30 0.30 0.26 0.11 0.11 0.08 0.00 0.00 0.00 0.00 0.00 0.00 0.00 0.00 0.00 0.00 0.00 0.00 0.00 0.00 0.00 0.00 0.00 0.00 0.00 0.00 0.00 0.00 0.00 0.00 0.00 0.00 0.00 0.00 0.00 0.00 0.00 0.00 0.00 0.00 0.00 0.00 0.00 0.00 0.00 0.00 -0.01 -0.02 -0.02 0.23 0.29 0.19 0.19 0.13 0.04 0.04 -0.00 0.00 0.00 0.00 0.00 0.00 0.00 0.00 0.00 0.00 0.00 0.00 0.00 0.00 0.00 0.00 0.00 0.00 0.00 0.00 0.00 0.00 0.00 0.00 0.00 0.00
0.00 0.01 0.01 0.06 0.00 0.00 -0.01 0.08 0.17 0.17 0.26 0.31 0.36 0.36 0.59 0.73 0.73 0.53 0.49 0.20 0.20 0.24 0.33 0.27 0.12 0.12 0.05 0.02 0.00 0.00 0.00 0.00 0.00 0.00 0.00 0.00 0.00 0.00 0.00 0.00 0.00 0.00 0.00 0.00 0.00 0.00 0.00 0.00 0.00 0.00 0.00 0.00 0.00 0.00 0.00 0.00 0.00 0.00 0.00 0.00 0.00 0.00 0.00 0.00 0.01 0.01 0.03 0.01 0.00 0.00 0.26 0.24 0.15 0.15 0.10 0.02 0.02 0.00 0.00 0.00 0.00 0.00 0.00 0.00 0.00 0.00 0.00 0.00 0.00 0.00 0.00 0.00 0.00 0.00 0.00 0.00 0.00 0.00 0.00 0.00 0.00 0.00 0.00
0.00 0.01 -0.00 -0.00 0.05 0.05 -0.02 0.04 0.06 0.06 0.11 0.22 0.35 0.35 0.62 0.70 0.70 0.50 0.50 0.19 0.19 0.25 0.39 0.31 0.23 0.23 0.06 0.02 0.00 0.00 0.00 0.00 0.00 0.00 0.00 0.00 0.00 0.00 0.00 0.01 0.01 0.00 0.00 0.00 0.00 0.00 0.00 0.00 0.00 0.00 0.00 0.00 0.00 0.00 0.00 0.00 0.00 0.00 0.00 0.00 0.00 0.00 0.01 0.05 0.05 0.05 0.04 0.02 0.13 0.13 0.29 0.20 0.09 0.09 0.07 0.00 0.00 0.00 0.00 0.00 0.00 0.00 0.00 0.00 0.00 0.00 0.00 0.00 0.00 0.00 0.00 0.00 0.00 0.00 0.00 0.00 0.00 0.00 0.00 0.00 0.00 0.00 0.00
-0.00 0.00 -0.02 -0.02 0.11 0.11 -0.03 -0.04 0.10 0.10 0.12 0.22 0.32 0.32 0.69 0.69 0.69 0.37 0.49 0.46 0.46 0.35 0.43 0.30 0.21 0.21 0.07 0.03 0.02 0.02 0.00 0.00 0.00 0.00 0.00 0.00 0.00 0.00 0.00 0.00 0.00 0.00 0.00 0.00 0.00 0.00 0.00 0.00 0.00 0.00 0.00 0.00 0.00 0.00 0.00 0.00 0.00 0.00 0.00 0.00 0.00 0.00 0.07 0.11 0.15 0.15 0.04 0.02 0.09 0.09 0.18 0.10 0.04 0.04 0.03 0.00 0.00 0.00 0.00 0.00 0.00 0.00 0.00 0.00 0.00 0.00 0.00 0.00 0.00 0.00 0.00 0.00 0.00 0.00 0.00 0.00 0.00 0.00 0.00 0.00 0.00 0.00 0.00
0.00 0.00 -0.03 -0.02 -0.00 -0.00 0.01 -0.02 0.15 0.15 0.20 0.39 0.53 0.53 0.68 0.71 0.71 0.63 0.55 0.51 0.51 0.43 0.49 0.31 0.27 0.27 0.11 0.06 0.09 0.09 0.01 0.00 0.00 0.00 0.00 0.00 0.00 0.00 0.00 0.00 0.00 0.00 0.00 0.00 0.00 0.00 0.00 0.00 0.00 0.00 0.00 0.00 0.00 0.00 0.00 0.00 0.00 0.00 0.00 0.00 0.00 0.07 0.20 0.15 0.12 0.12 0.07 0.05 0.15 0.15 0.14 0.03 0.01 0.01 0.01 0.00 0.00 0.00 0.00 0.00 0.00 0.00 0.00 0.00 0.00 0.00 0.00 0.00 0.00 0.00 0.00 0.00 0.00 0.00 0.00 0.00 0.00 0.00 0.00 0.00 0.00 0.00 0.00
0.00 0.00 -0.02 -0.03 -0.01 -0.01 -0.01 -0.02 0.11 0.11 0.22 0.67 0.75 0.75 0.69 0.69 0.69 0.51 0.51 0.57 0.57 0.49 0.51 0.35 0.32 0.32 0.27 0.17 0.15 0.15 0.05 0.03 0.00 0.00 0.00 0.00 0.00 0.00 0.00 0.00 0.00 0.00 0.00 0.00 0.00 0.00 0.00 0.00 0.00 0.00 0.00 0.00 0.00 0.00 0.00 0.00 0.00 0.00 0.00 0.00 0.00 0.04 0.20 0.14 0.08 0.08 0.06 0.02 0.15 0.15 0.09 0.01 0.00 0.00 0.00 0.00 0.00 0.00 0.00 0.00 0.00 0.00 0.00 0.00 0.00 0.00 0.00 0.00 0.00 0.00 0.00 0.00 0.00 0.00 0.00 0.00 0.00 0.00 0.00 0.00 0.00 0.00 0.00
0.00 -0.00 -0.03 -0.04 -0.01 -0.01 -0.03 -0.07 0.11 0.11 0.21 0.59 0.78 0.78 0.76 0.66 0.66 0.57 0.41 0.54 0.54 0.52 0.55 0.48 0.38 0.38 0.31 0.21 0.18 0.18 0.08 0.02 0.00 0.00 0.00 0.00 0.00 0.00 0.00 0.00 0.00 0.00 0.00 0.00 0.00 0.00 0.00 0.00 0.00 0.00 0.00 0.00 0.00 0.00 0.00 0.00 0.00 0.00 0.00 0.01 0.01 0.08 0.13 0.10 0.05 0.05 0.04 0.02 0.12 0.12 0.05 0.02 0.00 0.00 0.00 0.00 0.00 0.00 0.00 0.00 0.00 0.00 0.00 0.00 0.00 0.00 0.00 0.00 0.00 0.00 0.00 0.00 0.00 0.00 0.00 0.00 0.00 0.00 0.00 0.00 0.00 0.00 0.00
0.00 -0.02 -0.09 -0.07 -0.03 -0.03 -0.06 -0.04 0.23 0.23 0.24 0.40 0.88 0.88 0.96 0.53 0.53 0.42 0.46 0.59 0.59 0.62 0.60 0.52 0.46 0.46 0.40 0.30 0.24 0.24 0.17 0.00 0.00 0.00 0.00 0.00 0.00 0.00 0.00 0.00 0.00 0.00 0.00 0.00 0.00 0.00 0.00 0.00 0.00 0.00 0.00 0.00 0.00 0.00 0.00 0.00 0.00 0.00 0.00 0.02 0.02 0.05 0.03 0.03 0.02 0.02 0.03 0.03 0.05 0.05 0.02 0.01 0.00 0.00 0.00 0.00 0.00 0.00 0.00 0.00 0.00 0.00 0.00 0.00 0.00 0.00 0.00 0.00 0.00 0.00 0.00 0.00 0.00 0.00 0.00 0.00 0.00 0.00 0.00 0.00 0.00 0.00 0.00
-0.05 -0.10 -0.15 -0.11 -0.08 -0.08 -0.15 0.03 0.20 0.20 0.28 0.45 0.85 0.85 1.01 0.69 0.69 0.51 0.62 0.62 0.62 0.66 0.66 0.67 0.49 0.49 0.45 0.43 0.28 0.28 0.16 0.00 0.00 0.00 0.00 0.00 0.00 0.00 0.00 0.00 0.00 0.00 0.00 0.00 0.00 0.00 0.00 0.00 0.00 0.00 0.00 0.00 0.00 0.00 0.00 0.00 0.00 0.00 0.00 0.00 0.00 -0.06 -0.03 0.01 0.01 0.01 0.04 0.03 0.02 0.02 0.00 0.01 0.00 0.00 0.00 0.00 0.00 0.00 0.00 0.00 0.00 0.00 0.00 0.00 0.00 0.00 0.00 0.00 0.00 0.00 0.00 0.00 0.00 0.00 0.00 0.00 0.00 0.00 0.00 0.00 0.00 0.00 0.00
-0.05 -0.12 -0.15 -0.15 -0.12 -0.12 -0.22 -0.14 0.19 0.19 0.36 0.54 0.75 0.75 1.15 1.04 1.04 0.92 0.76 0.67 0.67 0.69 0.70 0.71 0.56 0.56 0.46 0.44 0.29 0.29 0.18 0.00 0.00 0.00 0.00 0.00 0.00 0.00 0.00 0.00 0.00 0.00 0.00 0.00 0.00 0.00 0.00 0.00 0.00 0.00 0.00 0.00 0.00 0.00 0.00 0.00 0.00 0.00 0.00 -0.10 -0.10 -0.12 -0.01 -0.01 0.02 0.02 0.04 0.04 0.01 0.01 0.00 0.00 0.00 0.00 0.00 0.00 0.00 0.00 0.00 0.00 0.00 0.00 0.00 0.00 0.00 0.00 0.00 0.00 0.00 0.00 0.00 0.00 0.00 0.00 0.00 0.00 0.00 0.00 0.00 0.00 0.00 0.00 0.00
-0.06 -0.15 -0.17 -0.23 -0.12 -0.12 -0.14 -0.17 0.11 0.11 0.58 0.70 0.95 0.95 1.17 1.15 1.15 1.04 0.84 0.74 0.74 0.74 0.72 0.73 0.57 0.57 0.41 0.39 0.26 0.26 0.10 0.03 0.00 0.00 0.00 0.00 0.00 0.00 0.00 0.00 0.00 0.00 0.00 0.00 0.00 0.00 0.00 0.00 0.00 0.00 0.00 0.00 0.00 0.00 0.00 0.00 0.00 0.00 0.00 -0.17 -0.17 -0.11 -0.02 -0.00 0.02 0.02 0.03 0.03 0.00 0.00 0.00 0.00 0.00 0.00 0.00 0.00 0.00 0.00 0.00 0.00 0.00 0.00 0.00 0.00 0.00 0.00 0.00 0.00 0.00 0.00 0.00 0.00 0.00 0.00 0.00 0.00 0.00 0.00 0.00 0.00 0.00 0.00 0.00
-0.19 -0.19 -0.24 -0.42 -0.38 -0.38 -0.23 -0.06 0.24 0.24 0.72 0.84 0.92 0.92 1.04 1.23 1.23 1.24 1.11 0.96 0.96 0.81 0.76 0.53 0.37 0.37 0.14 0.11 0.08 0.08 0.01 0.00 0.00 0.00 0.00 0.00 0.00 0.00 0.00 0.00 0.00 0.00 0.00 0.00 0.00 0.00 0.00 0.00 0.00 0.00 0.00 0.00 0.00 0.00 0.00 0.00 0.00 -0.03 -0.14 -0.20 -0.20 -0.09 -0.03 0.01 0.01 0.01 0.01 0.00 0.00 0.00 0.00 0.00 0.00 0.00 0.00 0.00 0.00 0.00 0.00 0.00 0.00 0.00 0.00 0.00 0.00 0.00 0.00 0.00 0.00 0.00 0.00 0.00 0.00 0.00 0.00 0.00 0.00 0.00 0.00 0.00 0.00 0.00 0.00
-0.74 -0.52 -0.42 -0.48 -0.61 -0.61 -0.52 -0.10 0.33 0.33 0.51 0.78 0.97 0.97 0.92 1.06 1.06 1.19 1.12 1.01 1.01 0.80 0.58 0.40 0.31 0.31 0.20 0.05 0.03 0.03 0.00 0.00 0.00 0.00 0.00 0.00 0.00 0.00 0.00 0.00 0.00 0.00 0.00 0.00 0.00 0.00 0.00 0.00 0.00 0.00 0.00 0.00 0.00 0.00 0.00 -0.00 -0.00 -0.03 -0.25 -0.18 -0.18 -0.05 -0.02 -0.01 0.00 0.00 0.00 0.00 0.00 0.00 0.00 0.00 0.00 0.00 0.00 0.00 0.00 0.00 0.00 0.00 0.00 0.00 0.00 0.00 0.00 0.00 0.00 0.00 0.00 0.00 0.00 0.00 0.00 0.00 0.00 0.00 0.00 0.00 0.00 0.00 0.00 0.00 0.00
-0.73 -0.48 -0.50 -0.47 -0.60 -0.60 -0.46 0.19 0.36 0.36 0.48 0.76 0.86 0.86 0.87 0.95 0.95 1.07 1.02 0.97 0.97 0.37 0.26 0.21 0.24 0.24 0.18 0.03 0.01 0.01 0.00 0.00 0.00 0.00 0.00 0.00 0.00 0.00 0.00 0.00 0.00 0.00 0.00 0.00 0.00 0.00 0.00 0.00 0.00 0.00 0.00 -0.00 0.00 0.00 0.00 -0.05 -0.05 -0.17 -0.18 -0.15 -0.15 -0.11 -0.03 -0.02 -0.00 -0.00 0.00 0.00 0.00 0.00 0.00 0.00 0.00 0.00 0.00 0.00 0.00 0.00 0.00 0.00 0.00 0.00 0.00 0.00 0.00 0.00 0.00 0.00 0.00 0.00 0.00 0.00 0.00 0.00 0.00 0.00 0.00 0.00 0.00 0.00 0.00 0.00 0.00
-0.70 -0.78 -0.60 -0.53 -0.21 -0.21 -0.14 0.02 0.39 0.39 0.64 0.72 0.84 0.84 0.75 0.80 0.80 0.89 0.87 0.81 0.81 0.21 0.11 0.09 0.18 0.18 0.15 0.02 0.01 0.01 0.00 0.00 0.00 0.00 0.00 0.00 0.00 0.00 0.00 0.00 0.00 0.00 0.00 0.00 0.00 0.00 -0.00 -0.00 0.00 0.00 -0.00 -0.00 -0.00 -0.00 -0.02 -0.16 -0.16 -0.27 -0.17 -0.11 -0.11 -0.08 -0.05 0.00 0.00 0.00 0.00 0.00 0.00 0.00 0.00 0.00 0.00 0.00 0.00 0.00 0.00 0.00 0.00 0.00 0.00 0.00 0.00 0.00 0.00 0.00 0.00 0.00 0.00 0.00 0.00 0.00 0.00 0.00 0.00 0.00 0.00 0.00 0.00 0.00 0.00 0.00 0.00
-0.62 -0.63 -0.68 -0.64 -0.33 -0.33 -0.26 -0.13 0.02 0.02 0.32 0.81 0.74 0.74 0.68 0.75 0.75 0.58 0.63 0.61 0.61 0.41 0.10 0.08 0.14 0.14 0.14 0.10 0.01 0.01 0.00 0.00 0.00 0.00 0.00 0.00 0.00 0.00 0.00 0.00 0.00 0.00 0.00 0.00 0.00 0.00 -0.00 -0.00 0.00 0.00 -0.00 -0.00 -0.00 -0.00 -0.03 -0.11 -0.11 -0.25 -0.12 -0.06 -0.06 -0.03 -0.02 0.00 0.00 0.00 0.00 0.00 0.00 0.00 0.00 0.00 0.00 0.00 0.00 0.00 0.00 0.00 0.00 0.00 0.00 0.00 0.00 0.00 0.00 0.00 0.00 0.00 0.00 0.00 0.00 0.00 0.00 0.00 0.00 0.00 0.00 0.00 0.00 0.00 0.00 0.00 0.00
-0.59 -0.57 -0.70 -0.60 -0.30 -0.30 -0.23 -0.16 0.09 0.09 0.19 0.58 0.68 0.68 0.63 0.58 0.58 0.65 0.40 0.28 0.28 0.31 0.11 0.07 0.07 0.07 0.13 0.11 0.02 0.02 0.01 0.00 0.00 0.00 0.00 0.00 0.00 0.00 0.00 0.00 0.00 0.00 0.00 -0.00 -0.00 -0.00 -0.00 -0.00 -0.00 -0.00 -0.00 -0.00 -0.00 -0.00 -0.07 -0.15 -0.15 -0.18 -0.09 -0.05 -0.05 -0.02 -0.01 0.00 0.00 0.00 0.00 0.00 0.00 0.00 0.00 0.00 0.00 0.00 0.00 0.00 0.00 0.00 0.00 0.00 0.00 0.00 0.00 0.00 0.00 0.00 0.00 0.00 0.00 0.00 0.00 0.00 0.00 0.00 0.00 0.00 0.00 0.00 0.00 0.00 0.00 0.00 0.00
-0.61 -0.58 -0.59 -0.60 -0.36 -0.36 -0.34 -0.26 0.04 0.04 0.21 0.35 0.55 0.55 0.50 0.57 0.57 0.60 0.53 0.18 0.18 0.21 0.17 0.07 0.07 0.07 0.12 0.11 0.04 0.04 0.02 0.01 0.00 0.00 0.00 0.00 0.00 0.00 0.00 0.00 0.00 0.00 0.00 -0.00 -0.00 -0.00 -0.00 -0.00 -0.00 -0.00 -0.00 -0.00 -0.00 -0.00 -0.15 -0.22 -0.22 -0.25 -0.07 -0.04 -0.04 -0.02 -0.00 0.00 0.00 0.00 0.00 0.00 0.00 0.00 0.00 0.00 0.00 0.00 0.00 0.00 0.00 0.00 0.00 0.00 0.00 0.00 0.00 0.00 0.00 0.00 0.00 0.00 0.00 0.00 0.00 0.00 0.00 0.00 0.00 0.00 0.00 0.00 0.00 0.00 0.00 0.00 0.00
-0.85 -0.80 -0.61 -0.71 -0.57 -0.57 -0.44 -0.32 0.09 0.09 0.15 0.32 0.38 0.38 0.43 0.45 0.45 0.47 0.45 0.18 0.18 0.16 0.18 0.11 0.08 0.08 0.11 0.10 0.08 0.08 0.02 0.01 0.00 0.00 0.00 0.00 0.00 0.00 0.00 0.00 0.00 -0.00 -0.00 -0.00 -0.00 -0.00 -0.00 -0.00 -0.00 -0.00 -0.00 -0.00 -0.02 -0.02 -0.11 -0.27 -0.27 -0.21 -0.09 -0.02 -0.02 -0.01 0.00 0.00 0.00 0.00 0.00 0.00 0.00 0.00 0.00 0.00 0.00 0.00 0.00 0.00 0.00 0.00 0.00 0.00 0.00 0.00 0.00 0.00 0.00 0.00 0.00 0.00 0.00 0.00 0.00 0.00 0.00 0.00 0.00 0.00 0.00 0.00 0.00 0.00 0.00 0.00 0.00
-0.97 -0.93 -0.81 -0.65 -0.58 -0.58 -0.48 -0.28 0.07 0.07 0.26 0.30 0.39 0.39 0.35 0.36 0.36 0.45 0.46 0.27 0.27 0.17 0.13 0.17 0.09 0.09 0.09 0.10 0.07 0.07 0.02 0.00 0.00 0.00 0.00 0.00 0.00 0.00 0.00 -0.00 -0.00 -0.00 -0.00 -0.00 -0.00 -0.00 -0.00 -0.00 -0.00 -0.00 -0.00 -0.00 -0.05 -0.05 -0.17 -0.27 -0.27 -0.17 -0.04 -0.01 -0.01 -0.00 0.00 0.00 0.00 0.00 0.00 0.00 0.00 0.00 0.00 0.00 0.00 0.00 0.00 0.00 0.00 0.00 0.00 0.00 0.00 0.00 0.00 0.00 0.00 0.00 0.00 0.00 0.00 0.00 0.00 0.00 0.00 0.00 0.00 0.00 0.00 0.00 0.00 0.00 0.00 0.00 0.00
-1.12 -1.04 -0.75 -0.60 -0.53 -0.53 -0.43 -0.20 -0.02 -0.02 0.29 0.46 0.42 0.42 0.39 0.26 0.26 0.40 0.43 0.43 0.43 0.27 0.17 0.13 0.10 0.10 0.09 0.09 0.09 0.09 0.05 0.00 0.00 0.00 0.00 0.00 0.00 0.00 -0.00 -0.00 -0.00 -0.00 -0.00 -0.00 -0.00 -0.00 -0.00 -0.00 -0.00 -0.00 -0.00 -0.00 -0.08 -0.08 -0.17 -0.24 -0.24 -0.10 -0.01 -0.01 -0.01 0.00 0.00 0.00 0.00 0.00 0.00 0.00 0.00 0.00 0.00 0.00 0.00 0.00 0.00 0.00 0.00 0.00 0.00 0.00 0.00 0.00 0.00 0.00 0.00 0.00 0.00 0.00 0.00 0.00 0.00 0.00 0.00 0.00 0.00 0.00 0.00 0.00 0.00 0.00 0.00 0.00 0.00
-1.19 -1.07 -0.95 -0.53 -0.46 -0.46 -0.34 -0.16 -0.02 -0.02 0.25 0.47 0.54 0.54 0.46 0.38 0.38 0.35 0.42 0.44 0.44 0.39 0.26 0.17 0.10 0.10 0.10 0.11 0.09 0.09 0.05 0.01 0.00 0.00 0.00 0.00 0.00 0.00 0.02 -0.00 -0.00 -0.00 -0.00 -0.00 -0.00 -0.00 -0.00 -0.00 -0.00 -0.00 -0.00 -0.00 -0.02 -0.02 -0.15 -0.18 -0.18 -0.12 -0.00 -0.00 -0.00 0.01 0.00 0.01 0.00 0.00 0.00 0.00 0.00 0.00 0.00 0.00 0.00 0.00 0.00 0.00 0.00 0.00 0.00 0.00 0.00 0.00 0.00 0.00 0.00 0.00 0.00 0.00 0.00 0.00 0.00 0.00 0.00 0.00 0.00 0.00 0.00 0.00 0.00 0.00 0.00 0.00 0.00
-1.00 -0.96 -0.96 -0.61 -0.57 -0.57 -0.22 -0.12 -0.05 -0.05 0.16 0.39 0.56 0.56 0.73 0.57 0.57 0.48 0.48 0.47 0.47 0.45 0.29 0.19 0.10 0.10 0.08 0.08 0.06 0.06 0.04 0.02 0.00 0.00 0.00 0.00 0.00 -0.00 -0.00 0.02 0.02 -0.00 -0.00 -0.00 0.00 0.00 0.00 0.00 -0.00 -0.00 -0.00 -0.00 -0.03 -0.03 -0.12 -0.12 -0.12 -0.04 -0.00 -0.00 -0.00 0.01 0.03 0.02 0.00 0.00 0.00 -0.00 0.00 0.00 0.00 0.00 0.00 0.00 0.00 0.00 0.00 0.00 0.00 0.00 0.00 0.00 0.00 0.00 0.00 0.00 0.00 0.00 0.00 0.00 0.00 0.00 0.00 0.00 0.00 0.00 0.00 0.00 0.00 0.00 0.00 0.00 0.00
-0.81 -0.87 -0.88 -0.62 -0.49 -0.49 -0.31 -0.07 -0.04 -0.04 0.05 0.15 0.35 0.35 0.92 1.05 1.05 1.25 0.62 0.52 0.52 0.39 0.29 0.18 0.12 0.12 0.11 0.10 0.04 0.04 0.03 0.03 0.01 0.01 0.00 0.00 0.00 0.01 -0.00 0.03 0.03 0.02 -0.00 0.00 0.00 0.00 0.00 -0.00 -0.00 -0.00 -0.00 -0.00 -0.04 -0.04 -0.06 -0.07 -0.07 -0.02 -0.01 -0.00 -0.00 0.01 0.07 0.05 0.00 0.00 0.00 0.00 0.00 0.00 0.00 0.00 0.00 0.00 0.00 0.00 0.00 0.00 0.00 0.00 0.00 0.00 0.00 0.00 0.00 0.00 0.00 0.00 0.00 0.00 0.00 0.00 0.00 0.00 0.00 0.00 0.00 0.00 0.00 0.00 0.00 0.00 0.00
-0.79 -0.81 -0.82 -0.60 -0.47 -0.47 -0.26 -0.07 -0.03 -0.03 0.00 0.08 0.15 0.15 0.77 0.90 0.90 1.18 0.95 0.65 0.65 0.41 0.25 0.16 0.14 0.14 0.10 0.10 0.04 0.04 0.04 0.03 0.05 0.05 0.04 0.04 0.04 0.05 0.03 0.01 0.01 0.08 0.07 0.06 0.00 0.00 0.00 0.00 -0.00 -0.00 -0.00 -0.01 -0.03 -0.03 -0.03 -0.05 -0.05 -0.01 -0.00 0.00 0.00 0.01 0.09 0.06 0.02 0.02 0.00 0.00 0.00 0.00 0.00 0.00 0.00 0.00 0.00 0.00 0.00 0.00 0.00 0.00 0.00 0.00 0.00 0.00 0.00 0.00 0.00 0.00 0.00 0.00 0.00 0.00 0.00 0.00 0.00 0.00 0.00 0.00 0.00 0.00 0.00 0.00 0.00
-0.70 -0.71 -0.73 -0.66 -0.45 -0.45 -0.26 -0.07 -0.05 -0.05 0.01 0.05 0.08 0.08 0.53 0.62 0.62 0.85 0.92 0.69 0.69 0.41 0.22 0.25 0.16 0.16 0.11 0.11 0.09 0.09 0.07 0.07 0.06 0.06 0.12 0.09 0.09 0.07 0.04 0.07 0.07 0.15 0.15 0.14 0.02 0.02 0.00 0.00 -0.00 -0.00 -0.00 0.00 -0.02 -0.02 -0.02 -0.02 -0.02 0.00 0.00 0.00 0.00 0.00 0.08 0.13 0.04 0.04 0.01 0.00 0.00 0.00 0.00 0.00 0.00 0.00 0.00 0.00 0.00 0.00 0.00 0.00 0.00 0.00 0.00 0.00 0.00 0.00 0.00 0.00 0.00 0.00 0.00 0.00 0.00 0.00 0.00 0.00 0.00 0.00 0.00 0.00 0.00 0.00 0.00
-0.43 -0.58 -0.59 -0.68 -0.50 -0.50 -0.32 -0.07 -0.04 -0.04 -0.01 0.08 0.09 0.09 0.21 0.56 0.56 0.62 0.76 0.64 0.64 0.45 0.22 0.26 0.27 0.27 0.17 0.12 0.09 0.09 0.12 0.10 0.08 0.08 0.10 0.08 0.08 0.09 0.14 0.14 0.14 0.16 0.20 0.25 0.18 0.18 0.04 0.00 -0.00 -0.00 -0.00 0.00 -0.00 -0.00 -0.01 -0.00 -0.00 0.00 0.00 0.00 0.00 -0.00 0.06 0.14 0.08 0.08 0.02 0.01 0.00 0.00 0.00 0.00 0.00 0.00 0.00 0.00 0.00 0.00 0.00 0.00 0.00 0.00 0.00 0.00 0.00 0.00 0.00 0.00 0.00 0.00 0.00 0.00 0.00 0.00 0.00 0.00 0.00 0.00 0.00 0.00 0.00 0.00 0.00
-0.38 -0.40 -0.44 -0.52 -0.54 -0.54 -0.38 -0.11 -0.04 -0.04 -0.01 0.08 0.13 0.13 0.27 0.47 0.47 0.47 0.49 0.58 0.58 0.46 0.31 0.24 0.28 0.28 0.25 0.18 0.16 0.16 0.11 0.08 0.06 0.06 0.06 0.04 0.04 0.06 0.16 0.17 0.17 0.19 0.29 0.31 0.29 0.29 0.10 0.02 -0.00 -0.00 0.00 0.00 0.00 0.00 -0.00 0.00 0.00 0.01 0.00 0.00 0.00 0.00 0.05 0.12 0.10 0.10 0.06 0.02 0.00 0.00 0.00 0.00 0.00 0.00 0.00 0.00 0.00 0.00 0.00 0.00 0.00 0.00 0.00 0.00 0.00 0.00 0.00 0.00 0.00 0.00 0.00 0.00 0.00 0.00 0.00 0.00 0.00 0.00 0.00 0.00 0.00 0.00 0.00
-0.39 -0.26 -0.28 -0.37 -0.46 -0.46 -0.37 -0.29 -0.09 -0.09 -0.02 0.10 0.19 0.19 0.22 0.33 0.33 0.31 0.28 0.40 0.40 0.46 0.34 0.22 0.23 0.23 0.21 0.21 0.16 0.16 0.14 0.09 0.06 0.06 0.05 0.03 0.03 0.07 0.10 0.14 0.14 0.18 0.25 0.31 0.27 0.27 0.26 0.09 0.02 0.02 0.01 0.00 0.00 0.00 -0.00 0.01 0.01 0.01 0.01 0.00 0.00 0.02 0.05 0.10 0.11 0.11 0.07 0.04 0.01 0.01 0.00 0.00 0.00 0.00 0.00 0.00 0.00 0.00 0.00 0.00 0.00 0.00 0.00 0.00 0.00 0.00 0.00 0.00 0.00 0.00 0.00 0.00 0.00 0.00 0.00 0.00 0.00 0.00 0.00 0.00 0.00 0.00 0.00
-0.36 -0.21 -0.21 -0.20 -0.34 -0.34 -0.32 -0.32 -0.20 -0.20 -0.06 0.04 0.15 0.15 0.18 0.27 0.27 0.18 0.16 0.19 0.19 0.27 0.30 0.24 0.20 0.20 0.21 0.21 0.19 0.19 0.14 0.08 0.05 0.05 0.05 0.04 0.04 0.09 0.11 0.13 0.13 0.23 0.28 0.23 0.23 0.23 0.23 0.16 0.06 0.06 0.00 0.00 0.00 0.00 0.00 0.00 0.00 0.00 0.01 0.01 0.01 0.03 0.05 0.05 0.12 0.12 0.08 0.07 0.03 0.03 0.00 0.00 0.00 0.00 0.00 0.00 0.00 0.00 0.00 0.00 0.00 0.00 0.00 0.00 0.00 0.00 0.00 0.00 0.00 0.00 0.00 0.00 0.00 0.00 0.00 0.00 0.00 0.00 0.00 0.00 0.00 0.00 0.00
-0.37 -0.16 -0.15 -0.12 -0.19 -0.19 -0.25 -0.25 -0.25 -0.25 -0.14 -0.03 0.15 0.15 0.19 0.24 0.24 0.14 0.10 0.10 0.10 0.11 0.15 0.19 0.17 0.17 0.19 0.21 0.17 0.17 0.15 0.11 0.09 0.09 0.09 0.07 0.07 0.11 0.14 0.16 0.16 0.27 0.24 0.19 0.20 0.20 0.19 0.18 0.06 0.06 0.00 0.00 0.00 0.00 0.00 0.00 0.00 0.00 0.01 0.02 0.02 0.04 0.05 0.05 0.07 0.07 0.10 0.09 0.06 0.06 0.02 0.00 0.00 0.00 0.00 0.00 0.00 0.00 0.00 0.00 0.00 0.00 0.00 0.00 0.00 0.00 0.00 0.00 0.00 0.00 0.00 0.00 0.00 0.00 0.00 0.00 0.00 0.00 0.00 0.00 0.00 0.00 0.00
-0.45 -0.21 -0.11 -0.08 -0.09 -0.09 -0.14 -0.18 -0.26 -0.26 -0.19 -0.17 0.09 0.09 0.14 0.18 0.18 0.13 0.10 0.07 0.07 0.07 0.06 0.10 0.15 0.15 0.14 0.15 0.15 0.15 0.14 0.14 0.11 0.11 0.17 0.15 0.15 0.14 0.16 0.19 0.19 0.27 0.29 0.24 0.20 0.20 0.17 0.19 0.04 0.04 0.00 0.00 0.00 0.00 0.00 0.00 0.00 0.00 0.01 0.02 0.02 0.04 0.05 0.04 0.05 0.05 0.11 0.10 0.07 0.07 0.05 0.01 0.00 0.00 0.00 0.00 0.00 0.00 0.00 0.00 0.00 0.00 0.00 0.00 0.00 0.00 0.00 0.00 0.00 0.00 0.00 0.00 0.00 0.00 0.00 0.00 0.00 0.00 0.00 0.00 0.00 0.00 0.00
-0.50 -0.21 -0.11 -0.06 -0.04 -0.04 -0.07 -0.12 -0.22 -0.22 -0.21 -0.15 0.04 0.04 0.09 0.13 0.13 0.10 0.10 0.08 0.08 0.05 0.06 0.06 0.13 0.13 0.11 0.13 0.21 0.21 0.16 0.14 0.16 0.16 0.19 0.22 0.22 0.22 0.27 0.28 0.28 0.28 0.32 0.31 0.26 0.26 0.20 0.17 0.11 0.11 0.01 0.00 0.00 0.00 0.00 0.00 0.00 0.00 0.00 0.02 0.02 0.04 0.04 0.04 0.04 0.04 0.05 0.08 0.08 0.08 0.05 0.01 0.00 0.00 0.00 0.00 0.00 0.00 0.00 0.00 0.00 0.00 0.00 0.00 0.00 0.00 0.00 0.00 0.00 0.00 0.00 0.00 0.00 0.00 0.00 0.00 0.00 0.00 0.00 0.00 0.00 0.00 0.00
-0.54 -0.39 -0.11 -0.06 -0.05 -0.05 -0.06 -0.08 -0.10 -0.10 -0.07 -0.07 0.02 0.02 0.07 0.11 0.11 0.09 0.07 0.07 0.07 0.07 0.05 0.07 0.11 0.11 0.12 0.13 0.13 0.13 0.19 0.20 0.21 0.21 0.29 0.25 0.25 0.25 0.34 0.39 0.39 0.37 0.39 0.35 0.31 0.31 0.23 0.17 0.09 0.09 0.04 0.00 -0.00 -0.00 0.00 0.00 0.00 0.00 0.00 0.01 0.01 0.02 0.02 0.04 0.03 0.03 0.03 0.02 0.07 0.07 0.04 0.02 0.00 0.00 0.00 0.00 0.00 0.00 0.00 0.00 0.00 0.00 0.00 0.00 0.00 0.00 0.00 0.00 0.00 0.00 0.00 0.00 0.00 0.00 0.00 0.00 0.00 0.00 0.00 0.00 0.00 0.00 0.00
-0.50 -0.37 -0.14 -0.07 -0.03 -0.03 -0.04 -0.05 -0.01 -0.01 0.00 0.01 0.05 0.05 0.06 0.05 0.05 0.04 0.05 0.04 0.04 0.04 0.06 0.07 0.10 0.10 0.12 0.24 0.22 0.22 0.25 0.33 0.30 0.30 0.31 0.36 0.36 0.40 0.40 0.47 0.47 0.40 0.36 0.29 0.26 0.26 0.23 0.17 0.15 0.15 0.10 0.05 0.00 0.00 0.00 0.00 0.00 0.00 0.00 0.00 0.00 0.00 0.02 0.02 0.02 0.02 0.02 0.02 0.02 0.02 0.03 0.03 0.02 0.02 0.01 0.00 0.00 0.00 0.00 0.00 0.00 0.00 0.00 0.00 0.00 0.00 0.00 0.00 0.00 0.00 0.00 0.00 0.00 0.00 0.00 0.00 0.00 0.00 0.00 0.00 0.00 0.00 0.00
-0.51 -0.42 -0.14 -0.08 -0.03 -0.03 -0.01 -0.02 -0.00 -0.00 0.00 0.02 0.03 0.03 0.08 0.05 0.05 0.03 0.03 0.04 0.04 0.04 0.07 0.08 0.10 0.10 0.10 0.18 0.21 0.21 0.29 0.30 0.38 0.38 0.39 0.39 0.39 0.42 0.44 0.46 0.46 0.30 0.24 0.21 0.15 0.15 0.17 0.16 0.17 0.17 0.10 0.04 0.01 0.01 0.00 0.00 0.00 0.00 0.00 0.00 0.00 0.00 0.02 0.03 0.02 0.02 0.03 0.02 0.01 0.01 0.01 0.01 0.00 0.00 0.00 0.00 0.00 0.00 0.00 0.00 0.00 0.00 0.00 0.00 0.00 0.00 0.00 0.00 0.00 0.00 0.00 0.00 0.00 0.00 0.00 0.00 0.00 0.00 0.00 0.00 0.00 0.00 0.00
-0.55 -0.43 -0.18 -0.09 -0.03 -0.03 -0.00 0.00 0.00 0.00 0.00 0.01 0.01 0.01 0.04 0.05 0.05 0.03 0.02 0.04 0.04 0.04 0.09 0.08 0.09 0.09 0.12 0.14 0.25 0.25 0.38 0.42 0.49 0.49 0.51 0.45 0.45 0.39 0.40 0.42 0.42 0.25 0.27 0.25 0.15 0.15 0.16 0.19 0.25 0.25 0.08 0.03 0.00 0.00 0.00 0.00 0.00 0.00 0.00 0.00 0.00 0.00 0.00 0.03 0.03 0.03 0.04 0.03 0.02 0.02 0.01 0.01 0.00 0.00 0.00 0.00 0.00 0.00 0.00 0.00 0.00 0.00 0.00 0.00 0.00 0.00 0.00 0.00 0.00 0.00 0.00 0.00 0.00 0.00 0.00 0.00 0.00 0.00 0.00 0.00 0.00 0.00 0.00
-0.51 -0.41 -0.20 -0.10 -0.04 -0.04 -0.01 -0.03 -0.00 -0.00 0.01 0.02 0.01 0.01 0.03 0.04 0.04 0.02 0.00 0.04 0.04 0.04 0.07 0.08 0.11 0.11 0.14 0.16 0.28 0.28 0.33 0.30 0.45 0.45 0.52 0.47 0.47 0.38 0.37 0.29 0.29 0.26 0.37 0.30 0.27 0.27 0.23 0.35 0.27 0.27 0.08 0.04 0.02 0.02 0.01 0.00 0.00 0.00 0.00 0.00 0.00 0.00 0.00 0.01 0.03 0.03 0.04 0.03 0.02 0.02 0.01 0.01 0.00 0.00 0.00 0.00 0.00 0.00 0.00 0.00 0.00 0.00 0.00 0.00 0.00 0.00 0.00 0.00 0.00 0.00 0.00 0.00 0.00 0.00 0.00 0.00 0.00 0.00 0.00 0.00 0.00 0.00 0.00
-0.45 -0.36 -0.29 -0.11 -0.05 -0.05 -0.04 -0.01 -0.01 -0.01 0.00 0.02 0.02 0.02 0.03 0.04 0.04 0.01 -0.01 0.00 0.00 0.03 0.05 0.08 0.11 0.11 0.15 0.19 0.24 0.24 0.23 0.24 0.27 0.27 0.35 0.38 0.38 0.39 0.37 0.31 0.31 0.48 0.53 0.49 0.46 0.46 0.40 0.41 0.27 0.27 0.17 0.04 0.02 0.02 0.01 0.00 0.00 0.00 0.00 0.00 0.00 0.00 0.00 0.01 0.02 0.02 0.03 0.04 0.04 0.04 0.01 0.02 0.01 0.01 0.00 0.00 0.00 0.00 0.00 0.00 0.00 0.00 0.00 0.00 0.00 0.00 0.00 0.00 0.00 0.00 0.00 0.00 0.00 0.00 0.00 0.00 0.00 0.00 0.00 0.00 0.00 0.00 0.00
-0.40 -0.32 -0.25 -0.11 -0.07 -0.07 -0.07 -0.01 -0.01 -0.01 0.00 0.02 0.02 0.02 0.01 0.02 0.02 -0.02 -0.02 -0.01 -0.01 0.02 0.03 0.07 0.11 0.11 0.16 0.23 0.23 0.23 0.19 0.21 0.17 0.17 0.27 0.32 0.32 0.36 0.38 0.51 0.51 0.55 0.59 0.59 0.54 0.54 0.50 0.37 0.26 0.26 0.14 0.07 0.02 0.02 0.00 0.00 0.00 0.00 0.00 0.00 0.00 0.00 0.00 0.01 0.01 0.01 0.01 0.04 0.04 0.04 0.04 0.02 0.02 0.02 0.01 0.00 0.00 0.00 0.00 0.00 0.00 0.00 0.00 0.00 0.00 0.00 0.00 0.00 0.00 0.00 0.00 0.00 0.00 0.00 0.00 0.00 0.00 0.00 0.00 0.00 0.00 0.00 0.00
-0.33 -0.28 -0.23 -0.12 -0.12 -0.12 -0.10 -0.04 -0.03 -0.03 -0.01 0.01 0.01 0.01 -0.00 -0.02 -0.02 -0.05 -0.05 -0.02 -0.02 0.02 0.03 0.06 0.10 0.10 0.16 0.22 0.21 0.21 0.18 0.17 0.14 0.14 0.31 0.45 0.45 0.45 0.41 0.61 0.61 0.63 0.65 0.62 0.61 0.61 0.55 0.43 0.23 0.23 0.12 0.05 0.01 0.01 0.00 0.00 0.00 0.00 0.00 0.00 0.00 0.00 0.00 0.01 0.01 0.01 0.01 0.04 0.04 0.04 0.04 0.04 0.02 0.02 0.01 0.01 0.01 0.00 0.00 0.00 0.00 0.00 0.00 0.00 0.00 0.00 0.00 0.00 0.00 0.00 0.00 0.00 0.00 0.00 0.00 0.00 0.00 0.00 0.00 0.00 0.00 0.00 0.00
-0.24 -0.22 -0.21 -0.13 -0.12 -0.12 -0.12 -0.08 -0.04 -0.04 -0.02 -0.00 0.01 0.01 -0.01 -0.04 -0.04 -0.06 -0.07 -0.02 -0.02 0.01 0.05 0.11 0.12 0.12 0.12 0.15 0.18 0.18 0.17 0.13 0.16 0.16 0.39 0.42 0.42 0.42 0.47 0.60 0.60 0.65 0.64 0.59 0.57 0.57 0.53 0.42 0.32 0.32 0.11 0.05 0.02 0.02 0.01 0.01 0.01 0.01 0.00 0.00 0.00 0.00 0.00 0.00 0.00 0.00 0.01 0.01 0.04 0.04 0.04 0.03 0.02 0.02 0.01 0.00 0.00 0.00 0.00 0.00 0.00 0.00 0.00 0.00 0.00 0.00 0.00 0.00 0.00 0.00 0.00 0.00 0.00 0.00 0.00 0.00 0.00 0.00 0.00 0.00 0.00 0.00 0.00
-0.17 -0.15 -0.09 -0.08 -0.09 -0.09 -0.11 -0.10 -0.05 -0.05 -0.02 0.00 0.01 0.01 -0.01 -0.05 -0.05 -0.06 -0.05 -0.01 -0.01 0.02 0.06 0.12 0.15 0.15 0.09 0.11 0.14 0.14 0.16 0.15 0.25 0.25 0.39 0.33 0.33 0.35 0.49 0.68 0.68 0.88 0.77 0.63 0.55 0.55 0.48 0.39 0.26 0.26 0.10 0.05 0.02 0.02 0.01 0.01 0.01 0.01 0.00 0.00 0.00 0.00 0.00 0.00 0.00 0.00 0.00 0.01 0.01 0.01 0.04 0.03 0.02 0.02 0.01 0.00 0.00 0.00 0.00 0.00 0.00 0.00 0.00 0.00 0.00 0.00 0.00 0.00 0.00 0.00 0.00 0.00 0.00 0.00 0.00 0.00 0.00 0.00 0.00 0.00 0.00 0.00 0.00
-0.15 -0.11 -0.07 -0.07 -0.08 -0.08 -0.12 -0.16 -0.08 -0.08 -0.03 0.00 0.03 0.03 0.02 -0.05 -0.05 -0.06 -0.02 -0.02 -0.02 0.02 0.04 0.09 0.15 0.15 0.15 0.11 0.13 0.13 0.22 0.25 0.34 0.34 0.38 0.36 0.36 0.45 0.61 0.95 0.95 1.14 0.88 0.75 0.61 0.61 0.47 0.39 0.24 0.24 0.18 0.06 0.03 0.03 0.03 0.01 0.01 0.01 0.01 0.01 0.01 0.00 0.00 0.00 0.00 0.00 0.00 0.00 0.01 0.01 0.01 0.01 0.01 0.01 0.01 0.00 0.00 0.00 0.00 0.00 0.00 0.00 0.00 0.00 0.00 0.00 0.00 0.00 0.00 0.00 0.00 0.00 0.00 0.00 0.00 0.00 0.00 0.00 0.00 0.00 0.00 0.00 0.00
-0.12 -0.10 -0.06 -0.06 -0.04 -0.04 -0.10 -0.16 -0.11 -0.11 -0.07 -0.02 0.03 0.03 0.03 -0.03 -0.03 -0.06 -0.01 -0.01 -0.01 0.02 0.03 0.06 0.11 0.11 0.15 0.15 0.20 0.20 0.20 0.24 0.40 0.40 0.40 0.40 0.40 0.51 0.92 1.01 1.01 1.06 0.76 0.81 0.64 0.64 0.54 0.36 0.24 0.24 0.18 0.15 0.12 0.12 0.08 0.05 0.05 0.01 0.01 0.01 0.01 0.00 0.00 0.00 0.00 0.00 0.00 0.00 0.00 0.00 0.00 0.00 0.00 0.00 0.00 0.00 0.00 0.00 0.00 0.00 0.00 0.00 0.00 0.00 0.00 0.00 0.00 0.00 0.00 0.00 0.00 0.00 0.00 0.00 0.00 0.00 0.00 0.00 0.00 0.00 0.00 0.00 0.00
-0.08 -0.08 -0.06 -0.03 -0.02 -0.02 -0.07 -0.09 -0.13 -0.13 -0.11 -0.06 0.01 0.01 0.02 -0.03 -0.03 -0.06 -0.06 0.00 0.00 0.03 0.04 0.05 0.07 0.07 0.12 0.14 0.15 0.15 0.17 0.18 0.38 0.38 0.40 0.39 0.39 0.58 0.83 0.70 0.70 0.65 0.59 0.76 0.72 0.72 0.48 0.33 0.29 0.29 0.20 0.15 0.15 0.15 0.09 0.06 0.06 0.03 0.01 0.01 0.01 0.01 0.00 0.00 0.00 0.00 0.00 0.00 0.00 0.00 0.00 0.00 0.00 0.00 0.00 0.00 0.00 0.00 0.00 0.00 0.00 0.00 0.00 0.00 0.00 0.00 0.00 0.00 0.00 0.00 0.00 0.00 0.00 0.00 0.00 0.00 0.00 0.00 0.00 0.00 0.00 0.00 0.00
-0.10 -0.05 -0.05 -0.02 -0.01 -0.01 -0.03 -0.02 -0.07 -0.07 -0.14 -0.12 -0.04 -0.04 -0.00 -0.04 -0.04 -0.10 -0.09 0.00 0.00 0.03 0.04 0.07 0.06 0.06 0.08 0.11 0.13 0.13 0.17 0.23 0.27 0.27 0.40 0.47 0.47 0.65 0.79 0.80 0.80 0.80 0.81 0.83 0.76 0.76 0.38 0.34 0.36 0.36 0.23 0.20 0.24 0.24 0.11 0.06 0.06 0.03 0.01 0.01 0.01 0.01 0.01 0.01 0.00 0.00 0.00 0.00 0.00 0.00 0.00 0.00 0.00 0.00 0.00 0.00 0.00 0.00 0.00 0.00 0.00 0.00 0.00 0.00 0.00 0.00 0.00 0.00 0.00 0.00 0.00 0.00 0.00 0.00 0.00 0.00 0.00 0.00 0.00 0.00 0.00 0.00 0.00
-0.08 -0.04 -0.04 -0.03 -0.01 -0.01 -0.02 -0.03 -0.04 -0.04 -0.13 -0.16 -0.10 -0.10 -0.03 -0.06 -0.06 -0.15 -0.15 -0.07 -0.07 0.02 0.05 0.07 0.04 0.04 0.04 0.07 0.13 0.13 0.25 0.27 0.25 0.25 0.44 0.63 0.63 0.75 0.78 0.93 0.93 1.14 1.18 1.06 0.53 0.53 0.34 0.37 0.47 0.47 0.31 0.24 0.25 0.25 0.19 0.06 0.06 0.03 0.01 0.01 0.01 0.01 0.01 0.01 0.01 0.01 0.00 0.00 0.00 0.00 0.00 0.00 0.00 0.00 0.00 0.00 0.00 0.00 0.00 0.00 0.00 0.00 0.00 0.00 0.00 0.00 0.00 0.00 0.00 0.00 0.00 0.00 0.00 0.00 0.00 0.00 0.00 0.00 0.00 0.00 0.00 0.00 0.00
-0.08 -0.03 -0.03 -0.03 -0.01 -0.01 -0.02 -0.03 -0.02 -0.02 -0.11 -0.16 -0.16 -0.16 -0.08 -0.16 -0.16 -0.20 -0.19 -0.16 -0.16 0.03 0.05 0.07 0.04 0.04 0.02 0.07 0.13 0.13 0.30 0.34 0.34 0.34 0.36 0.68 0.68 0.85 0.88 0.84 0.84 0.82 0.97 0.91 0.56 0.56 0.40 0.45 0.64 0.64 0.59 0.23 0.22 0.22 0.16 0.10 0.10 0.03 0.01 0.01 0.01 0.00 0.01 0.01 0.01 0.01 0.01 0.00 0.00 0.00 0.00 0.00 0.00 0.00 0.00 0.00 0.00 0.00 0.00 0.00 0.00 0.00 0.00 0.00 0.00 0.00 0.00 0.00 0.00 0.00 0.00 0.00 0.00 0.00 0.00 0.00 0.00 0.00 0.00 0.00 0.00 0.00 0.00
-0.07 -0.03 -0.02 -0.01 -0.01 -0.01 -0.01 -0.01 0.01 0.01 -0.02 -0.16 -0.17 -0.17 -0.15 -0.18 -0.18 -0.20 -0.18 -0.17 -0.17 0.00 0.04 0.05 0.06 0.06 0.05 0.08 0.18 0.18 0.31 0.48 0.48 0.48 0.45 0.51 0.51 0.83 0.95 0.90 0.90 0.69 0.68 0.61 0.61 0.61 0.68 0.67 0.65 0.65 0.48 0.23 0.20 0.20 0.16 0.11 0.11 0.02 0.01 0.00 0.00 0.00 0.00 0.01 0.00 0.00 0.00 0.00 0.00 0.00 0.00 0.00 0.00 0.00 0.00 0.00 0.00 0.00 0.00 0.00 0.00 0.00 0.00 0.00 0.00 0.00 0.00 0.00 0.00 0.00 0.00 0.00 0.00 0.00 0.00 0.00 0.00 0.00 0.00 0.00 0.00 0.00 0.00
-0.06 -0.02 -0.01 -0.01 -0.01 -0.01 -0.01 -0.00 0.01 0.01 -0.00 -0.12 -0.16 -0.16 -0.15 -0.19 -0.19 -0.21 -0.23 -0.20 -0.20 -0.05 0.01 0.05 0.07 0.07 0.09 0.10 0.17 0.17 0.28 0.46 0.49 0.49 0.49 0.50 0.50 0.69 0.86 0.90 0.90 0.88 0.73 0.60 0.55 0.55 0.58 0.81 0.53 0.53 0.41 0.35 0.17 0.17 0.15 0.12 0.12 0.06 0.00 0.00 0.00 0.00 0.00 0.00 0.00 0.00 0.00 0.00 0.00 0.00 0.00 0.00 0.00 0.00 0.00 0.00 0.00 0.00 0.00 0.00 0.00 0.00 0.00 0.00 0.00 0.00 0.00 0.00 0.00 0.00 0.00 0.00 0.00 0.00 0.00 0.00 0.00 0.00 0.00 0.00 0.00 0.00 0.00
-0.05 -0.04 -0.01 -0.01 -0.01 -0.01 -0.00 -0.01 -0.00 -0.00 -0.00 -0.05 -0.12 -0.12 -0.12 -0.15 -0.15 -0.24 -0.29 -0.27 -0.27 -0.19 0.02 0.06 0.07 0.07 0.09 0.10 0.13 0.13 0.19 0.30 0.47 0.47 0.55 0.64 0.64 0.67 0.71 0.79 0.79 0.79 0.82 0.64 0.48 0.48 0.45 0.54 0.45 0.45 0.40 0.28 0.22 0.22 0.11 0.08 0.08 0.05 0.01 0.00 0.00 0.00 0.00 0.00 0.00 0.00 0.00 0.00 0.00 0.00 0.00 0.00 0.00 0.00 0.00 0.00 0.00 0.00 0.00 0.00 0.00 0.00 0.00 0.00 0.00 0.00 0.00 0.00 0.00 0.00 0.00 0.00 0.00 0.00 0.00 0.00 0.00 0.00 0.00 0.00 0.00 0.00 0.00
-0.06 -0.04 -0.01 -0.01 -0.01 -0.01 -0.01 -0.00 -0.01 -0.01 -0.01 -0.03 -0.07 -0.07 -0.09 -0.12 -0.12 -0.26 -0.33 -0.33 -0.33 -0.21 0.01 0.05 0.09 0.09 0.11 0.09 0.11 0.11 0.17 0.26 0.41 0.41 0.56 0.72 0.72 0.62 0.61 0.68 0.68 0.67 0.67 0.58 0.51 0.51 0.43 0.36 0.37 0.37 0.36 0.20 0.17 0.17 0.14 0.03 0.03 0.02 0.00 0.00 0.00 0.00 0.00 0.00 0.00 0.00 0.00 0.00 0.00 0.00 0.00 0.00 0.00 0.00 0.00 0.00 0.00 0.00 0.00 0.00 0.00 0.00 0.00 0.00 0.00 0.00 0.00 0.00 0.00 0.00 0.00 0.00 0.00 0.00 0.00 0.00 0.00 0.00 0.00 0.00 0.00 0.00 0.00